Location: La Brionne
(46.1728°N, 1.7849°E)
Time: 07:28:09
(UTC+00:00)

Cosmos 220 Rocket - Pass Details

Date: 16 June 2021
Orbit: 574 x 616 km, 74.0° (Epoch: 02 August)

Event Time Altitude Azimuth Distance (km) Brightness Sun altitude
Rises 20:34:41 0° 204° (SSW) 2,826 7.2 -7.1°
Reaches altitude 10° 20:36:55 10° 205° (SSW) 1,922 6.4 -7.4°
Maximum altitude 20:41:12 77° 291° (WNW) 610 4.2 -7.9°
Drops below altitude 10° 20:45:29 10° 19° (NNE) 1,913 7.0 -8.4°
Sets 20:47:42 0° 21° (NNE) 2,811 7.8 -8.7°
